TIME,DELAY(SENSOR),PRES,T(CTD),SAL,OXYGEN,RAWTEMP,T(OPTODE),TCPHASE,FLUOR,BETA(BETA700),BETA(BETA412),BETA(BETA440),CDOM,C(CSC),ED(ED412.40),ED(ED444.00),ED(ED489.70),ED(ED554.30),LU(LU411.80),LU(LU443.40),LU(LU489.60),LU(LU554.10),COMP,TILTX,TILTX(TILTY),CHECK
1382650301,5810,497.7699890136719000,6.7748999595642090,34.1310997009277340,77.4464797973632800,594.6624755859375000,6.7565522193908690,49.1342887878418000,51,104,89,80,77,15247,2147744073,2147421778,2148008173,2147875648,2147627181,2147075648,2148248128,2147201042,1370,3,13,15439
1382650439,5808,486.3200073242187500,6.8920998573303220,34.1225013732910160,83.9007110595703100,591.0922241210938000,6.8716468811035160,48.3259010314941400,51,103,85,79,77,15247,2147747821,2147421750,2148004288,2147873810,2147628324,2147076800,2148247076,2147203145,3384,4,13,11004
1382650566,5810,474.8999938964844000,7.0029001235961910,34.1055984497070300,94.1818466186523400,587.6210937500000000,6.9834270477294920,47.1225090026855500,51,103,83,78,76,15249,2147741229,2147425179,2148008018,2147871917,2147626358,2147076992,2148244617,2147200777,2171,4,12,30082
1382650683,5808,464.2000122070312500,7.3319001197814940,34.1115989685058600,101.1229019165039000,577.0648803710938000,7.3226971626281740,46.2161483764648440,50,104,86,79,77,15247,2147743652,2147425636,2148004022,2147872941,2147622912,2147070811,2148244608,2147200466,1414,4,13,14277
1382650798,5810,453.6900024414062500,7.5173001289367680,34.1104011535644500,106.8098983764648400,571.5446166992188000,7.4997200965881350,45.5407485961914060,50,103,85,79,75,15247,2147740864,2147421696,2148007552,2147874550,2147628342,2147072566,2148243355,2147199241,197,4,13,53537
1382650927,5808,441.8099975585937500,7.6610999107360840,34.1086006164550800,112.8110961914062500,566.8922729492188000,7.6486949920654300,44.8627510070800800,50,102,88,79,75,15248,2147738944,2147423213,2148004882,2147876699,2147624877,2147080813,2148246189,2147201901,247,4,13,47477
1382651042,5809,431.5700073242187500,7.8976001739501950,34.1011009216308600,123.6692962646484400,559.5897216796875000,7.8821640014648440,43.6966781616210940,50,103,86,80,74,15247,2147737892,2147423104,2148006829,2147874276,2147624740,2147078400,2148241088,2147202596,70,4,12,28290
1382651169,5809,420.8200073242187500,8.0396995544433600,34.1022987365722660,130.1755981445312500,555.0543823242188000,8.0269298553466800,43.0238990783691400,51,104,84,80,73,15245,2147740050,2147422921,2148007296,2147872000,2147621888,2147084406,2148238043,2147201947,2311,3,13,46902
1382651310,5808,409.1400146484375000,8.3564996719360350,34.0990982055664060,139.9430999755859400,545.2767944335938000,8.3384523391723630,41.9968109130859400,51,104,86,79,73,15246,2147738825,2147423872,2148004626,2147873536,2147620077,2147083986,2148232941,2147203328,1178,3,13,4154
1382651437,5809,398.5400085449219000,8.6195001602172850,34.1029014587402340,145.8059997558593800,536.9686279296875000,8.6025466918945310,41.3583488464355500,50,105,86,79,73,15247,2147738221,2147423899,2148002688,2147874742,2147620900,2147087798,2148236973,2147201408,2983,3,13,30101
1382651566,5808,387.5799865722656000,8.8498001098632810,34.1038017272949200,153.4815979003906200,529.6088256835938000,8.8360347747802730,40.6074409484863300,50,103,88,80,72,15244,2147735076,2147424804,2148005412,2147874669,2147614683,2147087689,2148238244,2147202459,1249,3,13,18367
1382651693,5810,376.6799926757812500,9.1065998077392580,34.1074981689453100,161.2899932861328000,521.4003295898438000,9.0959548950195310,39.8558006286621100,50,105,82,80,71,15243,2147735360,2147423552,2148004178,2147872393,2147615616,2147085814,2148235008,2147206134,62,3,13,12948
1382651834,5808,365.7000122070312500,9.5492000579833980,34.1184005737304700,163.3045959472656200,507.6459960937500000,9.5303602218627930,39.4656791687011700,50,105,84,81,72,15242,2147735853,2147423341,2148003776,2147873947,2147612589,2147092955,2148232411,2147202971,2763,3,13,38036
1382651997,5804,355.2000122070312500,9.9687004089355470,34.1244010925293000,172.2783966064453000,494.0057983398437500,9.9598197937011720,38.5712890625000000,49,105,88,80,71,15239,2147735360,2147426441,2148006153,2147875465,2147611474,2147098075,2148225005,2147208658,950,3,13,52249
1382652210,5811,341.7300109863281000,10.5184001922607420,34.1371994018554700,180.8352966308593800,476.4218139648437500,10.5115900039672850,37.6738510131835940,49,104,87,80,71,15241,2147728521,2147426541,2148009014,2147872393,2147609188,2147100681,2148222774,2147202121,2644,3,13,5277
1382652339,5810,330.2799987792969000,10.8584995269775390,34.1453018188476560,185.2646942138672000,462.9721069335937500,10.9322996139526370,37.1503410339355500,48,104,88,78,70,15241,2147729773,2147423716,2148009664,2147872310,2147606500,2147100425,2148229696,2147201673,755,4,13,10645
1382652456,5809,318.8299865722656000,11.4744997024536130,34.1590003967285160,189.8415069580078000,444.0143127441406000,11.5234804153442380,36.5371589660644500,48,103,85,79,69,15240,2147728164,2147426578,2148013888,2147872740,2147607661,2147104457,2148223936,2147203163,3065,3,14,7737
1382652559,5808,308.5299987792969000,11.9084997177124020,34.1921997070312500,199.7167968750000000,431.8019104003906000,11.9032402038574220,35.7158813476562500,49,106,85,79,68,15241,2147729874,2147428672,2148013723,2147872100,2147601709,2147107840,2148223030,2147204790,3065,4,13,27634
1382652674,5810,297.1799926757812500,12.2804002761840820,34.2084007263183600,204.7523040771484400,418.3320007324219000,12.3212099075317380,35.1966209411621100,49,104,85,80,68,15241,2147726061,2147428461,2148024676,2147871606,2147600283,2147117321,2148224694,2147206994,829,3,13,20126
1382652803,5806,286.3299865722656000,12.7966995239257810,34.2365989685058600,206.6087951660156200,403.1388854980469000,12.7916002273559570,34.8474388122558600,48,101,87,81,68,15240,2147725549,2147431725,2148034569,2147873965,2147599085,2147121398,2148228992,2147206747,2989,3,13,51082
1382652954,5812,275.8699951171875000,13.3073997497558600,34.2793006896972660,210.0829925537109400,386.6299133300781000,13.3015604019165040,34.3892097473144500,50,105,85,79,67,15239,2147722752,2147433965,2148040393,2147871387,2147593618,2147126500,2148229659,2147205028,1096,3,14,6267
1382653131,5808,264.0799865722656000,14.2751998901367190,34.3592987060546900,211.9373016357422000,354.0002136230469000,14.3063697814941400,33.7863883972168000,48,102,85,80,66,15238,2147720722,2147444763,2148071817,2147874130,2147589595,2147137773,2148235849,2147210953,3430,2,13,32275
1382653260,5808,252.8800048828125000,14.7056999206542970,34.4067001342773440,213.6121978759765600,341.1914062500000000,14.6998195648193360,33.5010299682617200,48,104,88,79,66,15236,2147716544,2147458633,2148104164,2147872585,2147586944,2147149229,2148249609,2147213458,2691,3,14,18379
1382653377,5808,241.5800018310547000,15.2848997116088870,34.4672012329101560,212.6100006103515600,322.0043945312500000,15.2883300781250000,33.2733497619628900,49,107,84,80,65,15234,2147722468,2147474852,2148145856,2147874934,2147584027,2147159917,2148268196,2147215570,835,3,14,27042
1382653504,5809,229.8099975585937500,15.9995002746582030,34.5516014099121100,213.1974029541015600,297.1304016113281000,16.0499992370605470,32.8781089782714840,49,106,87,80,65,15231,2147722038,2147504411,2148207350,2147876909,2147583497,2147185060,2148298020,2147217398,2400,4,14,4660
1382653631,5809,219.2500000000000000,16.5897006988525400,34.6304016113281250,215.2279052734375000,279.5698852539062500,16.5870399475097660,32.5149688720703100,50,105,87,79,65,15231,2147726070,2147541970,2148285933,2147876708,2147583689,2147212251,2148325083,2147218084,2978,3,14,40954
1382653772,5808,209.2799987792968800,17.2252998352050780,34.7131996154785160,215.7893981933593800,258.0425109863281000,17.2448806762695300,32.1791496276855500,52,103,85,80,63,15228,2147735680,2147598354,2148402953,2147875346,2147583826,2147249234,2148380516,2147222738,2266,2,14,60550
1382653947,5808,198.0200042724609400,18.1096000671386720,34.8129997253418000,212.0758056640625000,230.1257934570312500,18.0974998474121100,31.9911098480224600,54,107,87,79,63,15221,2147721216,2147503954,2148150454,2147873682,2147577782,2147202560,2148258834,2147216484,1661,2,14,63278
1382654027,5811,193.3600006103515600,18.3845996856689450,34.8489990234375000,213.9239044189453000,221.0590972900390600,18.3743801116943360,31.7647590637207030,58,108,82,80,64,15222,2147773449,2147759917,2148696393,2147875675,2147596681,2147351926,2148511442,2147237074,608,3,14,64619
1382654106,5807,189.1600036621093800,18.5629005432128900,34.8731994628906250,215.9465942382812500,215.5599975585937500,18.5423202514648440,31.5803108215332030,60,110,83,79,64,15213,2147792393,2147821046,2148808740,2147874450,2147602505,2147382171,2148567040,2147236992,213,2,14,24103
1382654173,5807,185.5299987792968800,18.6366004943847660,34.8852005004882800,217.4349975585937500,212.8670043945312500,18.6245594024658200,31.4642200469970700,60,111,86,81,62,15214,2147809810,2147883218,2148923227,2147875008,2147609298,2147426057,2148616850,2147244928,3423,2,15,61279
1382654252,5809,181.3500061035156200,18.7586994171142580,34.9017982482910160,218.4983062744140600,208.8936004638672000,18.7459201812744140,31.3538799285888670,64,108,85,81,62,15211,2147840804,2147976969,2149078765,2147871981,2147619456,2147469549,2148689261,2147249353,2322,2,15,23719
1382654333,5809,177.6699981689453000,18.7887001037597660,34.9066009521484400,219.2976989746093800,207.2846984863281200,18.7950592041015620,31.2900791168212900,64,108,88,80,62,15211,2147867154,2148045796,2149201755,2147878454,2147628534,2147509458,2148744301,2147255085,1418,2,16,34751
1382654448,5811,174.4400024414062500,19.1560993194580080,34.9501991271972660,219.5989074707031200,195.8504028320312500,19.1443500518798830,31.1191902160644530,68,113,87,81,63,15209,2147896877,2148112841,2149311606,2147876580,2147641115,2147554450,2148796717,2147256448,48,2,15,11326
1382654721,5808,169.8999938964843800,19.7525005340576170,35.0262985229492200,220.5883941650390600,176.0337982177734400,19.7500000000000000,30.8009891510009770,72,120,87,80,62,15198,2147972516,2148249846,2149495533,2147876260,2147665261,2147627584,2148866642,2147265572,3156,2,15,50630
1382654812,5806,165.5800018310547000,19.8476009368896500,35.0393981933593750,220.7895050048828000,172.8043975830078000,19.8487491607666000,30.7474803924560550,72,113,86,81,61,15195,2148049197,2148404489,2149733897,2147879442,2147701129,2147713005,2148976548,2147275812,2591,2,15,3403
1382654891,5809,161.5200042724609400,20.2182006835937500,35.0737991333007800,220.2539978027343800,163.2886047363281200,20.1397991180419920,30.6479492187500000,76,116,87,80,61,15187,2148133293,2148578788,2150014473,2147880630,2147735195,2147813193,2149103716,2147283931,2962,2,15,64574
1382654977,5809,157.2700042724609400,20.4127998352050780,35.0904998779296900,219.3372039794922000,155.6045074462890600,20.3749408721923830,30.5928001403808600,76,116,87,83,62,15184,2148242075,2148795876,2150340461,2147884288,2147777819,2147932004,2149254802,2147293869,3554,2,16,23107
1382655044,5805,153.3699951171875000,20.5273990631103500,35.1017990112304700,218.3936004638672000,150.8963012695312500,20.5190696716308600,30.5795192718505860,79,118,87,82,61,15181,2148379968,2149042569,2150709814,2147885421,2147830336,2148064740,2149412754,2147307721,543,2,15,50032
1382655111,5807,149.6300048828125000,20.7138996124267580,35.1186981201171900,218.0718994140625000,144.9960021972656200,20.6997604370117200,30.5179195404052730,80,120,88,83,61,15174,2148534500,2149296493,2151089307,2147889965,2147892050,2148199853,2149584777,2147319826,442,2,15,49505
1382655202,5810,145.6499938964843800,20.9918994903564450,35.1319007873535160,216.4678039550781200,136.1779937744140600,20.9699401855468750,30.4844207763671880,89,118,88,81,61,15170,2148757193,2149652260,2151587401,2147892132,2147973549,2148368539,2149782016,2147337792,879,2,15,7756
1382655307,5809,141.9100036621093800,21.3549003601074220,35.1716003417968750,214.7814025878906200,124.3534011840820300,21.3325290679931640,30.4169292449951170,99,118,85,81,62,15166,2149030985,2150082294,2152182637,2147899968,2148071250,2148547373,2149994816,2147354989,1076,1,15,27222
1382655446,5808,138.1300048828125000,21.7763004302978500,35.2318992614746100,219.9499969482422000,111.4957962036132800,21.7272396087646500,29.9820098876953120,110,121,87,82,62,15150,2149353700,2150504850,2152751396,2147905444,2148184054,2148720996,2150208164,2147375862,2929,2,15,7736
1382655591,5808,133.6199951171875000,21.9955997467041000,35.2603988647460940,223.7256011962890600,103.3722991943359400,21.9768695831298830,29.6872100830078120,112,124,87,83,60,15136,2150022290,2151493001,2154045357,2147921417,2148431899,2149146578,2150682816,2147421741,2312,2,15,35059
1382655682,5810,129.3300018310547000,22.3047008514404300,35.2818984985351560,225.6181945800781200,94.9003829956054700,22.2374305725097660,29.4845790863037100,123,121,89,82,61,15132,2150860626,2152675254,2155548077,2147932635,2148719049,2149586880,2151157787,2147464338,2437,2,15,17246
1382655773,5810,125.9599990844726600,22.5020999908447270,35.3008995056152340,229.8016052246093800,87.1237335205078100,22.4768295288085940,29.1823291778564450,130,118,90,82,59,15126,2151700845,2153781778,2156837769,2147951817,2149033188,2150080886,2151714020,2147517101,3130,1,16,35738
1382655894,5807,121.6999969482421900,22.7432003021240230,35.3128013610839840,233.3202972412109400,78.8470916748046900,22.7318706512451170,28.9103794097900400,134,118,88,82,61,15125,2152954441,2155353234,2158457362,2147972882,2149506093,2150692013,2152288886,2147575424,2346,2,15,26367
1382655985,5807,117.5000000000000000,22.8635005950927730,35.3162994384765600,234.8923950195312500,75.5764389038086000,22.8327198028564450,28.7958507537841800,130,118,86,82,60,15112,2154759826,2157568850,2160815890,2148007058,2150177316,2151601782,2153197787,2147658258,2596,2,15,38594
1382656064,5805,113.8600006103515600,23.1375007629394530,35.3302001953125000,236.6125030517578000,66.2174835205078100,23.1215496063232420,28.5983905792236330,118,122,89,83,60,15108,2156714642,2159839478,2163068708,2148046226,2150945654,2152622080,2154165805,2147754221,3207,1,15,19724
1382656169,5805,109.5699996948242200,23.3185005187988280,35.3390007019043000,239.4846038818359400,60.2434501647949200,23.3061103820800780,28.3925399780273440,111,119,88,83,59,15109,2159666669,2163397641,2166537097,2148106825,2152190427,2154207323,2155626578,2147892406,2457,2,15,53049
1382656260,5809,106.0400009155273400,23.4151992797851560,35.3437995910644500,241.1815032958984400,56.7727584838867200,23.4134006500244140,28.2726898193359380,99,120,90,81,59,15105,2162685686,2166728804,2169594560,2148171958,2153497005,2155828178,2157086537,2148033965,2805,1,15,11369
1382656375,5807,102.3199996948242200,23.7383003234863280,35.3554992675781250,242.6898040771484400,47.0514907836914060,23.7142105102539060,28.0846900939941400,88,121,89,83,59,15108,2166350537,2170601499,2172826285,2148243035,2155266706,2157902134,2158737316,2148198939,2666,1,15,58369
1382656508,5806,98.9000015258789000,23.7901000976562500,35.3616981506347660,244.9008026123047000,44.6872100830078100,23.7874393463134770,27.9577503204345700,88,121,90,84,57,15104,2172083721,2176751945,2177985435,2148368859,2158231670,2161370752,2161412233,2148452854,1353,1,16,19206
1382656563,5807,96.2200012207031200,23.8707008361816400,35.3624000549316400,245.6950988769531200,42.2001991271972660,23.8644905090332030,27.8921794891357420,82,123,88,84,56,15096,2176296886,2180996489,2181688941,2148477878,2160277010,2163722404,2163288347,2148636068,792,2,15,46708
1382656618,5806,93.3700027465820300,24.1033000946044920,35.3656997680664060,246.0328063964843800,35.2068901062011700,24.0813293457031250,27.7911491394042970,78,124,87,85,59,15103,2180956672,2185640054,2185774930,2148617353,2162635392,2166385106,2165370678,2148836800,175,2,16,8176
1382656673,5803,90.5899963378906200,24.1271991729736330,35.3689994812011700,247.1275939941406200,34.1962699890136700,24.1126804351806640,27.7311496734619140,76,122,91,84,59,15104,2185179867,2189849234,2189512429,2148791268,2165129033,2169286317,2167721197,2149072722,3564,1,16,55565
1382656728,5807,87.5299987792968800,24.1741008758544920,35.3669013977050800,247.4481964111328000,32.8643493652343750,24.1540107727050780,27.7008209228515620,76,122,90,84,60,15104,2190551021,2195029494,2193943570,2148987657,2168142016,2172492544,2170082870,2149313197,130,1,16,62618
1382656785,5808,84.3399963378906200,24.3586997985839840,35.3688011169433600,248.0088958740234400,27.0610504150390620,24.3341999053955080,27.6053905487060550,75,123,89,84,57,15106,2196020781,2200167030,2198223369,2149238299,2171364827,2175951341,2172634697,2149585581,22,2,15,35597
1382656840,5810,81.9199981689453100,24.7122993469238280,35.3474998474121100,247.1304931640625000,19.1856594085693360,24.5790100097656250,27.5465908050537100,73,122,91,84,57,15108,2200032694,2203990784,2201491245,2149429613,2173800777,2178530258,2174413165,2149772516,253,2,16,17302
1382656895,5810,80.4599990844726600,24.9428005218505860,35.3746986389160160,247.2198028564453000,9.0171041488647460,24.8956108093261720,27.4183101654052730,74,123,88,83,58,15104,2203000100,2207278354,2204546386,2149595072,2175481536,2180320338,2175750418,2149916260,764,1,16,11412
1382657208,5808,78.1999969482421900,25.1277008056640620,35.3765983581543000,249.3491973876953000,1.8566069602966309,25.1189002990722660,27.2399291992187500,69,121,90,82,55,15098,2208517412,2211844699,2207983323,2149876406,2179884169,2184801993,2178804845,2150231113,3124,1,16,60393
1382657287,5808,76.0999984741211000,25.1858997344970700,35.3774986267089840,249.4920043945312500,-0.1593232005834580,25.1818103790283200,27.2094402313232420,70,123,91,84,57,15100,2212754340,2216136594,2211656667,2150147593,2183108736,2187870774,2180744018,2150430464,2576,1,16,14762
1382657366,5803,74.1999969482421900,25.4151000976562500,35.3839988708496100,248.9064941406250000,-6.6623659133911130,25.3849391937255860,27.1552791595459000,66,123,89,84,59,15084,2217050596,2219919899,2214657206,2150401243,2186188626,2190838134,2182661641,2150656603,2529,1,16,38604
1382657463,5807,72.2399978637695300,25.6320991516113280,35.3941993713378900,248.5740966796875000,-14.8509902954101560,25.6410808563232420,27.0699996948242200,65,122,89,84,56,15088,2223672192,2225288457,2219022619,2150803803,2190838144,2195387547,2185728292,2150965467,3067,0,16,25040
1382658058,5806,69.6699981689453100,26.9585990905761720,35.4718017578125000,239.7761993408203000,-56.9132995605468750,26.9637393951416000,26.9394702911376950,62,122,91,85,55,15079,2238414985,2237654921,2228025856,2151460397,2208777947,2211508955,2194568018,2151794166,705,1,16,26937
1382658113,5808,67.5500030517578100,27.1942996978759770,35.4934005737304700,237.6396942138672000,-63.2164001464843750,27.1630191802978500,26.9571399688720700,63,122,93,85,56,15072,2244316809,2243322276,2232720832,2151913590,2215879652,2217775488,2198232429,2152192438,1040,1,16,34285
1382658168,5806,65.7500000000000000,27.3418006896972660,35.5027999877929700,235.7633972167968800,-68.1295471191406200,27.3185691833496100,26.9806098937988280,63,122,93,85,53,15074,2250056658,2249356370,2238338944,2152530678,2222276498,2223439862,2201660626,2152606235,1318,1,16,18100
1382658223,5808,64.2099990844726600,27.4395008087158200,35.5074005126953100,234.1977996826172000,-70.5826416015625000,27.3962993621826170,27.0209102630615230,63,121,89,84,54,15076,2253361490,2252162422,2240997184,2152905883,2225901686,2226461659,2203500580,2152800969,1047,1,16,52636
1382658314,5809,62.5600013732910160,27.5393009185791000,35.5054016113281250,232.3760986328125000,-74.4068908691406200,27.5175590515136720,27.0564308166503900,60,121,91,84,55,15079,2260479780,2259568822,2248145984,2153735424,2233216768,2233188598,2207736594,2153269558,1028,1,16,58692
1382658423,5811,60.0999984741210940,27.6828994750976560,35.4924011230468750,230.0601043701172000,-79.3233871459961000,27.6736392974853500,27.1018390655517580,59,120,90,84,56,15077,2266954176,2265854043,2253126848,2154833764,2245682633,2243689243,2213626752,2153983606,1798,0,16,27657
1382658490,5806,58.2000007629394500,27.8335990905761720,35.4602012634277340,228.0476989746093800,-83.9852676391601600,27.8218097686767580,27.1373195648193360,59,118,91,84,55,15075,2271185837,2268713115,2255498240,2155227446,2255317513,2252185664,2218686793,2154532955,1241,0,16,55943
1382658581,5807,56.6399993896484400,27.8419990539550780,35.3899993896484400,225.7059020996093800,-84.9091415405273400,27.8511905670166000,27.2346496582031250,57,117,90,84,53,15069,2275480667,2272141248,2259487780,2156066230,2260588553,2256519597,2221425865,2154771638,157,0,17,60526
1382658738,5805,53.8800010681152340,27.8108997344970700,35.3404006958007800,224.0216979980468800,-83.9003906250000000,27.8191108703613280,27.3260707855224600,57,117,91,82,53,15097,2287415917,2284186230,2271498797,2158400786,2278403867,2271553490,2230300790,2155934144,232,0,16,45680
1382658793,5810,51.8400001525878900,27.7751007080078120,35.3005981445312500,223.3802947998047000,-82.8802337646484400,27.7866706848144530,27.3685894012451170,55,115,89,84,54,15098,2292946980,2289490130,2276384603,2159623241,2289984192,2281355145,2236080768,2156604507,3584,0,16,24179
1382658848,5809,49.8699989318847660,27.7702007293701170,35.2947006225585940,222.9857940673828000,-82.7103805541992200,27.7812690734863280,27.3894405364990230,55,114,90,81,57,15098,2296065289,2292670564,2279793828,2161119734,2299023798,2288228498,2239683931,2157171565,3151,1,16,57649
1382658903,5805,47.8800010681152340,27.7702999114990230,35.2910995483398440,222.7615966796875000,-82.7092132568359400,27.7812309265136720,27.4000205993652340,53,115,88,83,57,15097,2305328027,2303388882,2290942637,2163672576,2313309138,2300100489,2246578020,2158169243,2766,1,16,30293
1382658958,5809,45.9199981689453100,27.7763996124267580,35.2829017639160160,222.5668029785156200,-82.7523803710937500,27.7826004028320300,27.4087390899658200,54,115,90,82,55,15098,2311010706,2309877650,2297176201,2165871396,2326213540,2310215588,2251772955,2159034633,2348,0,16,62602
1382659043,5808,42.4700012207031250,27.7866992950439450,35.2542991638183600,222.4517974853515600,-82.9299926757812500,27.7882499694824220,27.4120998382568360,53,113,88,84,56,15099,2328138806,2326853540,2314104932,2171075648,2357858358,2338087424,2268655972,2161588617,1400,1,17,4975
1382659098,5808,39.6899986267089840,27.7870006561279300,35.2470016479492200,222.4871978759765600,-83.0213623046875000,27.7911491394042970,27.4093399047851560,53,114,88,82,53,15099,2341111085,2340099346,2329990427,2177835428,2378455323,2355363318,2279282825,2163434660,1010,0,17,29464
1382659153,5809,36.8400001525878900,27.7894992828369140,35.2442016601562500,222.5265960693359400,-83.1839294433593800,27.7963199615478500,27.4053897857666000,53,114,93,82,51,15101,2356127049,2355010614,2345696832,2184141997,2400525723,2373636224,2289851593,2165443693,758,1,16,19612
1382659208,5808,34.0299987792968750,27.7912998199462900,35.2429008483886700,222.6838989257812500,-83.4019622802734400,27.8032608032226560,27.3951606750488280,53,114,86,82,59,15107,2358846299,2356702162,2348547894,2190124123,2422592704,2392109513,2301019264,2167890148,320,1,16,28190
1382659263,5809,31.2399997711181640,27.7959003448486330,35.2419013977050800,222.7463073730468800,-83.5822372436523400,27.8089904785156250,27.3902091979980470,51,113,88,81,60,15108,2371701659,2368984137,2361124845,2197217673,2445964397,2410942491,2312524470,2170723062,198,1,16,29734
1382659320,5809,28.3999996185302730,27.8003005981445300,35.2406997680664060,222.7413940429687500,-83.7043762207031200,27.8128700256347660,27.3887996673584000,50,112,90,83,55,15104,2382317092,2380286582,2375044873,2208733568,2473459474,2435031643,2327784246,2173953481,78,1,16,56815